GW3580 Weather Reports


time (UTC)temp
C
wind
direction
speed
KPH
gust
KPH
rain 1hr
cm
rain 24hr
cm
rain mn
cm
humidity
%
barometer
mb
20260901095312 16 270 6.4 8.0 0.00 0.00 0.00 65 1011.6
20260901094807 16 260 1.6 3.2 0.00 0.00 0.00 66 1011.9
20260901094302 16 252 1.6 3.2 0.00 0.00 0.00 66 1011.9
20260901093756 16 230 4.8 6.4 0.00 0.00 0.00 65 1011.8
20260901093255 16 283 4.8 6.4 0.00 0.00 0.00 66 1011.9
20260901092751 16 258 3.2 3.2 0.00 0.00 0.00 66 1012.0
20260901092248 16 261 3.2 3.2 0.00 0.00 0.00 66 1011.8
20260901091742 16 259 6.4 8.0 0.00 0.00 0.00 65 1012.0
20260901091237 16 284 6.4 6.4 0.00 0.00 0.00 66 1011.8
20260901090732 16 262 4.8 6.4 0.00 0.00 0.00 66 1012.0
20260901090227 16 262 3.2 3.2 0.00 0.00 0.00 66 1011.7
20260901085723 17 209 4.8 6.4 0.00 0.00 0.00 66 1011.7
20260901085218 17 271 4.8 6.4 0.00 0.00 0.00 66 1011.9
20260901084715 17 254 3.2 3.2 0.00 0.00 0.00 65 1011.7
20260901084211 17 298 8.0 9.7 0.00 0.00 0.00 65 1011.7
20260901083705 17 226 4.8 6.4 0.00 0.00 0.00 65 1011.7
20260901083204 17 241 3.2 3.2 0.00 0.00 0.00 65 1011.8
20260901082703 17 247 6.4 8.0 0.00 0.00 0.00 64 1011.6
20260901082159 17 246 3.2 6.4 0.00 0.00 0.00 64 1011.7
20260901081655 17 265 3.2 3.2 0.00 0.00 0.00 64 1011.6
20260901081154 17 21 1.6 1.6 0.00 0.00 0.00 64 1011.8
20260901080649 17 348 1.6 3.2 0.00 0.00 0.00 63 1011.6
20260901080148 17 120 3.2 3.2 0.00 0.00 0.00 63 1011.5
20260901075643 17 190 1.6 1.6 0.00 0.00 0.00 63 1011.7
20260901075143 18 252 4.8 6.4 0.00 0.00 0.00 63 1011.4
20260901074642 18 69 0.0 1.6 0.00 0.00 0.00 63 1011.5
20260901074137 18 251 1.6 3.2 0.00 0.00 0.00 62 1011.5
20260901073634 18 219 4.8 6.4 0.00 0.00 0.00 63 1011.6
20260901073129 18 230 3.2 3.2 0.00 0.00 0.00 62 1011.3
20260901072624 18 251 4.8 8.0 0.00 0.00 0.00 63 1011.6
20260901072119 18 256 4.8 8.0 0.00 0.00 0.00 62 1011.2
20260901071614 18 282 1.6 3.2 0.00 0.00 0.00 62 1011.3
20260901071113 18 260 4.8 6.4 0.00 0.00 0.00 62 1011.1
20260901070607 18 243 6.4 8.0 0.00 0.00 0.00 62 1011.2
20260901070103 18 244 4.8 6.4 0.00 0.00 0.00 61 1011.1
20260901065556 18 232 4.8 6.4 0.00 0.00 0.00 61 1010.9
20260901065051 18 228 6.4 8.0 0.00 0.00 0.00 60 1011.0
20260901064549 18 254 3.2 3.2 0.00 0.00 0.00 60 1011.1
20260901064044 19 245 8.0 9.7 0.00 0.00 0.00 59 1011.1
20260901063541 19 249 4.8 8.0 0.00 0.00 0.00 59 1011.0
20260901063037 19 267 4.8 6.4 0.00 0.00 0.00 59 1011.0
20260901062532 19 225 4.8 6.4 0.00 0.00 0.00 59 1010.6
20260901062028 19 233 8.0 9.7 0.00 0.00 0.00 58 1010.6
20260901061524 20 292 8.0 12.9 0.00 0.00 0.00 57 1010.8
20260901061019 20 257 4.8 6.4 0.00 0.00 0.00 57 1010.9
20260901060513 20 267 3.2 3.2 0.00 0.00 0.00 56 1010.5
20260901060008 20 242 4.8 6.4 0.00 0.00 0.00 56 1010.5
20260901055504 20 260 8.0 9.7 0.00 0.00 0.00 55 1010.8
20260901055001 20 217 3.2 6.4 0.00 0.00 0.00 54 1010.6
20260901054457 20 263 4.8 6.4 0.00 0.00 0.00 53 1010.3
20260901053953 20 285 6.4 8.0 0.00 0.00 0.00 53 1010.4
20260901053448 21 300 8.0 9.7 0.00 0.00 0.00 52 1010.2
20260901052943 21 260 9.7 11.3 0.00 0.00 0.00 51 1010.5
20260901052439 21 263 8.0 9.7 0.00 0.00 0.00 51 1010.4
20260901051932 21 262 4.8 8.0 0.00 0.00 0.00 50 1010.4
20260901051428 21 231 9.7 11.3 0.00 0.00 0.00 49 1010.2
20260901050927 21 238 6.4 8.0 0.00 0.00 0.00 49 1010.0
20260901050423 22 273 6.4 6.4 0.00 0.00 0.00 48 1010.2
20260901045922 22 242 8.0 9.7 0.00 0.00 0.00 47 1010.0
20260901045417 22 247 4.8 6.4 0.00 0.00 0.00 46 1010.0
20260901044907 22 242 8.0 9.7 0.00 0.00 0.00 45 1009.8
20260901044403 22 265 8.0 9.7 0.00 0.00 0.00 45 1009.6
20260901043859 22 245 4.8 9.7 0.00 0.00 0.00 45 1009.7
20260901043355 22 248 4.8 6.4 0.00 0.00 0.00 45 1009.6
20260901042855 22 297 1.6 1.6 0.00 0.00 0.00 44 1009.5
20260901042349 22 248 4.8 6.4 0.00 0.00 0.00 43 1009.5
20260901041844 23 259 3.2 3.2 0.00 0.00 0.00 42 1009.3
20260901041339 23 250 1.6 3.2 0.00 0.00 0.00 42 1009.3
20260901040834 23 246 3.2 3.2 0.00 0.00 0.00 41 1009.4
20260901040333 23 282 3.2 6.4 0.00 0.00 0.00 40 1009.3
20260901035832 23 254 3.2 6.4 0.00 0.00 0.00 39 1009.1
20260901035331 23 239 4.8 6.4 0.00 0.00 0.00 38 1009.3
20260901034830 24 215 1.6 3.2 0.00 0.00 0.00 39 1009.2
20260901034325 24 229 3.2 3.2 0.00 0.00 0.00 39 1008.9
20260901033820 24 267 4.8 6.4 0.00 0.00 0.00 39 1008.9
20260901033319 25 261 1.6 1.6 0.00 0.00 0.00 40 1008.9
20260901032818 25 245 3.2 3.2 0.00 0.00 0.00 38 1008.7
20260901032317 25 274 3.2 3.2 0.00 0.00 0.00 38 1008.9
20260901031812 25 234 4.8 6.4 0.00 0.00 0.00 37 1008.7
20260901031308 25 247 8.0 9.7 0.00 0.00 0.00 36 1008.7
20260901030808 25 261 4.8 6.4 0.00 0.00 0.00 36 1008.4
20260901030303 26 274 8.0 9.7 0.00 0.00 0.00 36 1008.6
20260901025802 26 273 6.4 8.0 0.00 0.00 0.00 37 1008.5
20260901025257 26 274 6.4 8.0 0.00 0.00 0.00 37 1008.5
20260901024752 26 278 3.2 3.2 0.00 0.00 0.00 39 1008.6
20260901024251 26 128 0.0 0.0 0.00 0.00 0.00 38 1008.4
20260901023749 27 243 1.6 1.6 0.00 0.00 0.00 38 1008.0
20260901023244 27 248 1.6 1.6 0.00 0.00 0.00 36 1008.4
20260901022740 27 273 3.2 3.2 0.00 0.00 0.00 36 1008.3
20260901022235 27 246 1.6 1.6 0.00 0.00 0.00 36 1008.3
20260901021730 28 254 1.6 1.6 0.00 0.00 0.00 34 1008.2
20260901021226 28 247 1.6 1.6 0.00 0.00 0.00 33 1008.1
20260901020721 28 271 1.6 1.6 0.00 0.00 0.00 33 1008.1
20260901020217 28 230 3.2 3.2 0.00 0.00 0.00 32 1008.1
20260901015711 29 249 1.6 3.2 0.00 0.00 0.00 31 1008.1
20260901015207 30 237 3.2 3.2 0.00 0.00 0.00 30 1008.0
20260901014706 30 271 8.0 9.7 0.00 0.00 0.00 29 1008.0
20260901014203 30 251 12.9 17.7 0.00 0.00 0.00 28 1008.0
20260901013658 30 261 8.0 9.7 0.00 0.00 0.00 27 1008.1
20260901013154 31 261 6.4 8.0 0.00 0.00 0.00 28 1008.0
20260901012649 31 279 4.8 8.0 0.00 0.00 0.00 27 1007.9
20260901012144 31 271 3.2 3.2 0.00 0.00 0.00 26 1007.8
20260901011640 31 259 3.2 3.2 0.00 0.00 0.00 25 1007.9
20260901011139 31 254 4.8 6.4 0.00 0.00 0.00 27 1007.9
20260901010633 32 261 3.2 3.2 0.00 0.00 0.00 26 1008.2
20260901010132 32 39 0.0 0.0 0.00 0.00 0.00 24 1007.8
20260901005627 32 39 1.6 1.6 0.00 0.00 0.00 24 1007.9
20260901005122 32 49 0.0 1.6 0.00 0.00 0.00 25 1008.0
20260901004621 32 263 4.8 6.4 0.00 0.00 0.00 24 1008.1
20260901004116 32 262 0.0 1.6 0.00 0.00 0.00 26 1008.1
20260901003611 32 301 1.6 1.6 0.00 0.00 0.00 25 1007.9
20260901003109 32 255 4.8 6.4 0.00 0.00 0.00 23 1008.1
20260901002604 32 261 6.4 8.0 0.00 0.00 0.00 24 1008.1
20260901002059 32 33 0.0 0.0 0.00 0.00 0.00 22 1008.2
20260901001554 32 271 4.8 6.4 0.00 0.00 0.00 22 1008.2
20260901001049 32 232 4.8 8.0 0.00 0.00 0.00 21 1008.4
20260901000544 33 248 4.8 6.4 0.00 0.00 0.00 21 1008.4
20260901000039 32 259 3.2 3.2 0.00 0.00 0.00 21 1008.3
20260831235532 32 281 8.0 11.3 0.00 0.00 0.00 20 1008.4
20260831235028 32 274 4.8 6.4 0.00 0.00 0.00 20 1008.4
20260831234523 32 267 4.8 6.4 0.00 0.00 0.00 21 1008.5
20260831234019 32 249 6.4 8.0 0.00 0.00 0.00 20 1008.2
20260831233514 33 296 4.8 6.4 0.00 0.00 0.00 20 1008.4
20260831233009 33 45 1.6 1.6 0.00 0.00 0.00 21 1008.5
20260831232504 33 325 0.0 0.0 0.00 0.00 0.00 21 1008.3
20260831232000 33 20 0.0 1.6 0.00 0.00 0.00 21 1008.5
20260831231457 33 50 1.6 3.2 0.00 0.00 0.00 21 1008.5
20260831230952 33 254 3.2 3.2 0.00 0.00 0.00 21 1008.5
20260831230447 32 359 1.6 1.6 0.00 0.00 0.00 21 1008.5
20260831225946 33 243 4.8 6.4 0.00 0.00 0.00 20 1008.6
20260831225443 33 343 1.6 1.6 0.00 0.00 0.00 20 1008.9
20260831224937 32 223 0.0 0.0 0.00 0.00 0.00 20 1008.8
20260831224437 32 234 4.8 6.4 0.00 0.00 0.00 21 1008.8
20260831223932 33 251 1.6 1.6 0.00 0.00 0.00 19 1008.9
20260831223427 32 157 1.6 1.6 0.00 0.00 0.00 20 1009.1
20260831222924 32 266 4.8 8.0 0.00 0.00 0.00 20 1009.2
20260831222420 32 273 3.2 3.2 0.00 0.00 0.00 21 1009.5
20260831221915 32 261 3.2 3.2 0.00 0.00 0.00 20 1009.2
20260831221411 32 335 4.8 6.4 0.00 0.00 0.00 20 1009.3
20260831220906 32 241 6.4 8.0 0.00 0.00 0.00 23 1009.5
20260831220401 32 84 4.8 6.4 0.00 0.00 0.00 20 1009.4
20260831215856 32 271 3.2 3.2 0.00 0.00 0.00 20 1009.6
20260831215352 32 353 1.6 3.2 0.00 0.00 0.00 22 1009.5
20260831214848 31 151 4.8 6.4 0.00 0.00 0.00 22 1009.6
20260831214345 31 266 6.4 8.0 0.00 0.00 0.00 21 1009.6
20260831213846 32 277 8.0 9.7 0.00 0.00 0.00 22 1009.7
20260831213342 31 47 0.0 1.6 0.00 0.00 0.00 24 1009.7
20260831212837 31 333 3.2 3.2 0.00 0.00 0.00 22 1009.8
20260831212334 31 247 1.6 1.6 0.00 0.00 0.00 24 1009.9
20260831211832 31 246 3.2 6.4 0.00 0.00 0.00 23 1010.0
20260831211328 31 319 3.2 3.2 0.00 0.00 0.00 25 1010.1
20260831210827 31 296 1.6 1.6 0.00 0.00 0.00 25 1010.1
20260831210323 31 225 0.0 1.6 0.00 0.00 0.00 25 1010.2
20260831205818 30 357 0.0 0.0 0.00 0.00 0.00 23 1010.1
20260831205314 30 267 4.8 6.4 0.00 0.00 0.00 23 1010.2
20260831204813 30 281 8.0 9.7 0.00 0.00 0.00 23 1010.3
20260831204313 30 308 3.2 3.2 0.00 0.00 0.00 24 1010.2
20260831203812 30 263 6.4 8.0 0.00 0.00 0.00 25 1010.2
20260831203307 30 219 1.6 1.6 0.00 0.00 0.00 28 1010.3
20260831202805 30 334 1.6 1.6 0.00 0.00 0.00 28 1010.4
20260831202300 30 107 1.6 1.6 0.00 0.00 0.00 29 1010.6
20260831201754 30 257 1.6 1.6 0.00 0.00 0.00 26 1010.8
20260831201253 30 247 4.8 8.0 0.00 0.00 0.00 29 1010.8
20260831200749 30 255 4.8 8.0 0.00 0.00 0.00 27 1010.9
20260831200244 30 349 1.6 1.6 0.00 0.00 0.00 29 1010.9
20260831195739 29 310 1.6 1.6 0.00 0.00 0.00 30 1010.9
20260831195235 29 256 4.8 6.4 0.00 0.00 0.00 29 1011.0
20260831194729 30 21 1.6 1.6 0.00 0.00 0.00 30 1011.1
20260831194226 29 39 3.2 3.2 0.00 0.00 0.00 31 1011.0
20260831193719 28 249 6.4 8.0 0.00 0.00 0.00 31 1011.0
20260831193215 28 307 1.6 3.2 0.00 0.00 0.00 31 1011.1
20260831192710 28 229 1.6 1.6 0.00 0.00 0.00 31 1011.2
20260831192205 28 224 3.2 3.2 0.00 0.00 0.00 31 1011.1
20260831191701 28 225 1.6 1.6 0.00 0.00 0.00 32 1011.1
20260831191157 27 243 6.4 8.0 0.00 0.00 0.00 32 1011.4
20260831190652 27 234 1.6 1.6 0.00 0.00 0.00 33 1011.4
20260831190151 27 27 1.6 3.2 0.00 0.00 0.00 33 1011.4
20260831185646 26 337 3.2 3.2 0.00 0.00 0.00 34 1011.3
20260831185142 26 258 3.2 3.2 0.00 0.00 0.00 34 1011.2
20260831184641 26 234 4.8 6.4 0.00 0.00 0.00 34 1011.5
20260831184137 26 255 3.2 6.4 0.00 0.00 0.00 35 1011.7
20260831183637 26 271 3.2 3.2 0.00 0.00 0.00 35 1011.5
20260831183136 26 250 3.2 6.4 0.00 0.00 0.00 35 1011.3
20260831182635 26 234 0.0 1.6 0.00 0.00 0.00 36 1011.6
20260831182131 26 254 6.4 6.4 0.00 0.00 0.00 35 1011.5
20260831181626 26 19 1.6 3.2 0.00 0.00 0.00 36 1011.4
20260831181125 26 244 3.2 3.2 0.00 0.00 0.00 35 1011.6
20260831180621 25 218 1.6 1.6 0.00 0.00 0.00 38 1011.4
20260831180116 25 264 1.6 1.6 0.00 0.00 0.00 37 1011.5
20260831175610 25 9 1.6 1.6 0.00 0.00 0.00 38 1011.7
20260831175108 25 74 1.6 1.6 0.00 0.00 0.00 38 1011.7
20260831174607 24 127 1.6 3.2 0.00 0.00 0.00 40 1011.5
20260831174102 25 283 3.2 3.2 0.00 0.00 0.00 40 1011.3
20260831173600 24 339 1.6 1.6 0.00 0.00 0.00 42 1011.5
20260831173057 24 38 0.0 1.6 0.00 0.00 0.00 42 1011.2
20260831172551 23 236 3.2 3.2 0.00 0.00 0.00 42 1011.6
20260831172051 23 258 1.6 1.6 0.00 0.00 0.00 43 1011.4
20260831171547 23 221 4.8 6.4 0.00 0.00 0.00 43 1011.3
20260831171044 23 248 3.2 3.2 0.00 0.00 0.00 44 1011.6
20260831170539 23 11 1.6 1.6 0.00 0.00 0.00 44 1011.4
20260831170037 22 39 3.2 6.4 0.00 0.00 0.00 47 1011.4
20260831165537 22 233 3.2 3.2 0.00 0.00 0.00 48 1011.4
20260831165034 22 69 3.2 3.2 0.00 0.00 0.00 49 1011.3
20260831164530 21 344 1.6 3.2 0.00 0.00 0.00 50 1011.3
20260831164025 21 263 3.2 3.2 0.00 0.00 0.00 51 1011.3
20260831163520 21 37 0.0 1.6 0.00 0.00 0.00 51 1011.3
20260831163015 21 41 0.0 1.6 0.00 0.00 0.00 50 1011.1
20260831162514 21 30 1.6 1.6 0.00 0.00 0.00 52 1011.5
20260831162012 20 229 1.6 1.6 0.00 0.00 0.00 53 1011.3
20260831161509 20 222 1.6 1.6 0.00 0.00 0.00 54 1011.1
20260831161005 20 265 1.6 1.6 0.00 0.00 0.00 55 1011.3
20260831160504 20 230 4.8 6.4 0.00 0.00 0.00 55 1011.3
20260831155959 20 267 4.8 6.4 0.00 0.00 0.00 55 1011.1
20260831155454 20 279 3.2 3.2 0.00 0.00 0.00 56 1011.1
20260831154949 19 252 1.6 3.2 0.00 0.00 0.00 56 1011.1
20260831154446 19 248 3.2 3.2 0.00 0.00 0.00 56 1011.0
20260831153944 19 283 3.2 3.2 0.00 0.00 0.00 56 1011.1
20260831153440 19 231 3.2 3.2 0.00 0.00 0.00 57 1011.0
20260831152937 18 286 1.6 1.6 0.00 0.00 0.00 59 1010.8
20260831152432 18 275 3.2 3.2 0.00 0.00 0.00 61 1011.0
20260831151927 18 29 0.0 1.6 0.00 0.00 0.00 64 1010.8
20260831151426 18 303 1.6 3.2 0.00 0.00 0.00 64 1010.8
20260831150921 17 283 1.6 1.6 0.00 0.00 0.00 65 1011.0
20260831150411 17 295 0.0 1.6 0.00 0.00 0.00 66 1011.0
20260831145910 17 309 1.6 3.2 0.00 0.00 0.00 65 1010.9
20260831145406 18 311 1.6 1.6 0.00 0.00 0.00 64 1010.6
20260831144902 17 326 0.0 0.0 0.00 0.00 0.00 65 1010.8
20260831144358 17 19 0.0 0.0 0.00 0.00 0.00 65 1010.5
20260831143853 17 20 0.0 0.0 0.00 0.00 0.00 64 1010.5
20260831143348 17 20 0.0 0.0 0.00 0.00 0.00 64 1010.6
20260831142843 16 351 0.0 0.0 0.00 0.00 0.00 68 1010.4
20260831142338 16 351 0.0 0.0 0.00 0.00 0.00 69 1010.4
20260831141838 16 346 0.0 1.6 0.00 0.00 0.00 71 1010.4
20260831141333 16 37 0.0 0.0 0.00 0.00 0.00 71 1010.3
20260831140828 15 38 0.0 0.0 0.00 0.00 0.00 70 1010.4
20260831140322 15 39 0.0 0.0 0.00 0.00 0.00 70 1010.1
20260831135820 15 39 0.0 1.6 0.00 0.00 0.00 70 1010.1
20260831135316 15 39 0.0 0.0 0.00 0.00 0.00 70 1009.8
20260831134811 15 39 0.0 0.0 0.00 0.00 0.00 70 1010.0
20260831134308 15 39 0.0 0.0 0.00 0.00 0.00 70 1009.7
20260831133807 15 39 0.0 0.0 0.00 0.00 0.00 72 1009.9
20260831133306 15 39 0.0 0.0 0.00 0.00 0.00 72 1009.5
20260831132802 15 39 0.0 0.0 0.00 0.00 0.00 72 1009.5
20260831132256 15 39 0.0 0.0 0.00 0.00 0.00 71 1009.4
20260831131750 15 39 0.0 0.0 0.00 0.00 0.00 71 1009.5
20260831131247 15 39 0.0 0.0 0.00 0.00 0.00 71 1009.6
20260831130742 15 39 0.0 0.0 0.00 0.00 0.00 71 1009.7
20260831130237 15 39 0.0 0.0 0.00 0.00 0.00 71 1009.6
20260831125736 15 39 0.0 0.0 0.00 0.00 0.00 71 1009.7
20260831125232 15 39 0.0 0.0 0.00 0.00 0.00 71 1009.8
20260831124726 15 39 0.0 0.0 0.00 0.00 0.00 71 1009.6
20260831124223 15 39 0.0 0.0 0.00 0.00 0.00 71 1009.4
20260831123722 15 39 0.0 0.0 0.00 0.00 0.00 71 1009.7
20260831123221 15 39 0.0 0.0 0.00 0.00 0.00 71 1009.6
20260831122716 15 40 0.0 0.0 0.00 0.00 0.00 72 1009.5
20260831122212 15 39 0.0 0.0 0.00 0.00 0.00 71 1009.7
20260831121711 15 39 0.0 0.0 0.00 0.00 0.00 71 1009.6
20260831121208 15 39 0.0 0.0 0.00 0.00 0.00 70 1009.5
20260831120703 15 39 0.0 0.0 0.00 0.00 0.00 70 1009.4
20260831120157 15 39 0.0 0.0 0.00 0.00 0.00 70 1009.3
20260831115653 15 40 0.0 0.0 0.00 0.00 0.00 69 1009.3
20260831115149 15 40 0.0 0.0 0.00 0.00 0.00 69 1009.4
20260831114648 15 61 1.6 1.6 0.00 0.00 0.00 69 1009.3
20260831114142 15 46 0.0 1.6 0.00 0.00 0.00 68 1009.3
20260831113642 15 34 0.0 0.0 0.00 0.00 0.00 68 1009.2
20260831113138 15 43 0.0 0.0 0.00 0.00 0.00 68 1009.5
20260831112636 15 45 0.0 0.0 0.00 0.00 0.00 68 1009.1
20260831112132 15 47 0.0 1.6 0.00 0.00 0.00 69 1009.4
20260831111628 15 30 1.6 1.6 0.00 0.00 0.00 70 1009.4
20260831111124 15 37 0.0 0.0 0.00 0.00 0.00 70 1009.5
20260831110619 15 31 0.0 0.0 0.00 0.00 0.00 70 1009.5
20260831110114 15 31 0.0 0.0 0.00 0.00 0.00 70 1009.3
20260831105613 16 32 0.0 0.0 0.00 0.00 0.00 69 1009.4
20260831105108 16 46 0.0 0.0 0.00 0.00 0.00 69 1009.5
20260831104604 16 22 0.0 0.0 0.00 0.00 0.00 68 1009.5
20260831104100 16 17 0.0 0.0 0.00 0.00 0.00 68 1009.5
20260831103554 16 20 0.0 0.0 0.00 0.00 0.00 66 1009.5
20260831103051 16 348 0.0 0.0 0.00 0.00 0.00 65 1009.5
20260831102544 16 287 0.0 1.6 0.00 0.00 0.00 66 1009.3
20260831102040 17 300 1.6 1.6 0.00 0.00 0.00 67 1009.3
20260831101534 16 307 0.0 1.6 0.00 0.00 0.00 66 1009.4
20260831101031 17 65 0.0 0.0 0.00 0.00 0.00 63 1009.4
20260831100526 17 61 0.0 0.0 0.00 0.00 0.00 62 1009.2
20260831100022 17 301 0.0 1.6 0.00 0.00 0.00 61 1009.3